TimePST,TemperatureF,Dew PointF,Humidity,Sea Level PressureIn,VisibilityMPH,Wind Direction,Wind SpeedMPH,Gust SpeedMPH,PrecipitationIn,Events,Conditions,WindDirDegrees,DateUTC
12:51 AM,59.0,28.0,31,30.00,10.0,NE,8.1,-,N/A,,Clear,40,2014-01-03 08:51:00
1:51 AM,57.0,28.0,33,30.00,10.0,NE,5.8,-,N/A,,Clear,40,2014-01-03 09:51:00
2:51 AM,55.9,28.0,34,29.99,10.0,NE,3.5,-,N/A,,Clear,50,2014-01-03 10:51:00
3:51 AM,50.0,30.9,48,29.99,10.0,SE,3.5,-,N/A,,Clear,140,2014-01-03 11:51:00
4:51 AM,51.1,28.9,43,29.99,10.0,East,5.8,-,N/A,,Clear,90,2014-01-03 12:51:00
5:51 AM,51.1,28.0,41,30.00,10.0,East,3.5,-,N/A,,Clear,80,2014-01-03 13:51:00
6:51 AM,50.0,28.9,44,30.01,10.0,NE,4.6,-,N/A,,Clear,50,2014-01-03 14:51:00
7:51 AM,52.0,28.9,41,30.02,10.0,NE,5.8,-,N/A,,Clear,50,2014-01-03 15:51:00
8:51 AM,59.0,30.0,33,30.03,10.0,NE,5.8,-,N/A,,Clear,50,2014-01-03 16:51:00
9:51 AM,63.0,28.9,28,30.02,10.0,East,4.6,-,N/A,,Clear,80,2014-01-03 17:51:00
10:51 AM,63.0,37.0,38,30.00,10.0,Variable,3.5,-,N/A,,Clear,0,2014-01-03 18:51:00
11:51 AM,60.1,52.0,75,29.96,10.0,SSW,4.6,-,N/A,,Clear,210,2014-01-03 19:51:00
12:51 PM,57.9,52.0,81,29.95,10.0,South,8.1,-,N/A,,Clear,190,2014-01-03 20:51:00
1:51 PM,55.9,52.0,87,29.94,9.0,SW,6.9,-,N/A,,Clear,230,2014-01-03 21:51:00
2:51 PM,57.0,52.0,83,29.94,9.0,SW,6.9,-,N/A,,Clear,230,2014-01-03 22:51:00
3:51 PM,57.9,52.0,81,29.92,10.0,SE,4.6,-,N/A,,Clear,130,2014-01-03 23:51:00
4:51 PM,55.9,52.0,87,29.93,7.0,Calm,Calm,-,N/A,,Clear,0,2014-01-04 00:51:00
5:51 PM,55.0,51.1,86,29.94,8.0,West,3.5,-,N/A,,Clear,260,2014-01-04 01:51:00
6:51 PM,54.0,50.0,86,29.94,7.0,Calm,Calm,-,N/A,,Clear,0,2014-01-04 02:51:00
7:51 PM,55.0,51.1,86,29.95,6.0,Variable,6.9,24.2,N/A,,Clear,0,2014-01-04 03:51:00
8:51 PM,52.0,50.0,93,29.96,4.0,North,-9999.0,-,N/A,,Clear,0,2014-01-04 04:51:00
9:51 PM,53.1,51.1,93,29.97,5.0,East,3.5,-,N/A,,Clear,90,2014-01-04 05:51:00
10:51 PM,51.1,48.9,92,29.97,5.0,NE,3.5,-,N/A,,Clear,40,2014-01-04 06:51:00
11:51 PM,51.1,48.0,89,29.96,6.0,Calm,Calm,-,N/A,,Clear,0,2014-01-04 07:51:00